Year,Month,Day,Hour,Minute,Value (Times are PST for temperature in C)
2014,12,09,00,00,10.30
2014,12,09,00,01,10.30
2014,12,09,00,02,10.30
2014,12,09,00,03,10.30
2014,12,09,00,04,10.40
2014,12,09,00,05,10.40
2014,12,09,00,06,10.40
2014,12,09,00,07,10.40
2014,12,09,00,08,10.40
2014,12,09,00,09,10.40
2014,12,09,00,10,10.40
2014,12,09,00,11,10.40
2014,12,09,00,12,10.40
2014,12,09,00,13,10.30
2014,12,09,00,14,10.30
2014,12,09,00,15,10.30
2014,12,09,00,16,10.30
2014,12,09,00,17,10.30
2014,12,09,00,18,10.40
2014,12,09,00,19,10.40
2014,12,09,00,20,10.40
2014,12,09,00,21,10.40
2014,12,09,00,22,10.40
2014,12,09,00,23,10.40
2014,12,09,00,24,10.50
2014,12,09,00,25,10.50
2014,12,09,00,26,10.60
2014,12,09,00,27,10.60
2014,12,09,00,28,10.60
2014,12,09,00,29,10.60
2014,12,09,00,30,10.60
2014,12,09,00,31,10.70
2014,12,09,00,32,10.70
2014,12,09,00,33,10.70
2014,12,09,00,34,10.70
2014,12,09,00,35,10.70
2014,12,09,00,36,10.70
2014,12,09,00,37,10.70
2014,12,09,00,38,10.70
2014,12,09,00,39,10.70
2014,12,09,00,40,10.70
2014,12,09,00,41,10.80
2014,12,09,00,42,10.80
2014,12,09,00,43,10.80
2014,12,09,00,44,10.80
2014,12,09,00,45,10.80
2014,12,09,00,46,10.80
2014,12,09,00,47,10.80
2014,12,09,00,48,10.80
2014,12,09,00,49,10.80
2014,12,09,00,50,10.80
2014,12,09,00,51,10.80
2014,12,09,00,52,10.80
2014,12,09,00,53,10.80
2014,12,09,00,54,10.80
2014,12,09,00,55,10.80
2014,12,09,00,56,10.80
2014,12,09,00,57,10.90
2014,12,09,00,58,10.90
2014,12,09,00,59,10.90
2014,12,09,01,00,10.90
2014,12,09,01,01,10.90
2014,12,09,01,02,10.90
2014,12,09,01,03,10.90
2014,12,09,01,04,11.00
2014,12,09,01,05,11.00
2014,12,09,01,06,11.00
2014,12,09,01,07,11.00
2014,12,09,01,08,11.00
2014,12,09,01,09,11.10
2014,12,09,01,10,11.00
2014,12,09,01,11,11.00
2014,12,09,01,12,10.90
2014,12,09,01,13,10.90
2014,12,09,01,14,10.90
2014,12,09,01,15,10.90
2014,12,09,01,16,10.90
2014,12,09,01,17,10.90
2014,12,09,01,18,10.90
2014,12,09,01,19,10.90
2014,12,09,01,20,10.90
2014,12,09,01,21,10.90
2014,12,09,01,22,10.90
2014,12,09,01,23,11.00
2014,12,09,01,24,11.00
2014,12,09,01,25,11.00
2014,12,09,01,26,10.90
2014,12,09,01,27,11.00
2014,12,09,01,28,10.90
2014,12,09,01,29,10.90
2014,12,09,01,30,10.90
2014,12,09,01,31,10.90
2014,12,09,01,32,11.00
2014,12,09,01,33,11.00
2014,12,09,01,34,11.00
2014,12,09,01,35,11.00
2014,12,09,01,36,10.90
2014,12,09,01,37,10.90
2014,12,09,01,38,10.90
2014,12,09,01,39,10.90
2014,12,09,01,40,10.90
2014,12,09,01,41,10.90
2014,12,09,01,42,10.90
2014,12,09,01,43,10.90
2014,12,09,01,44,10.90
2014,12,09,01,45,10.90
2014,12,09,01,46,11.00
2014,12,09,01,47,11.00
2014,12,09,01,48,11.00
2014,12,09,01,49,11.10
2014,12,09,01,50,11.10
2014,12,09,01,51,11.10
2014,12,09,01,52,11.10
2014,12,09,01,53,11.10
2014,12,09,01,54,11.10
2014,12,09,01,55,11.10
2014,12,09,01,56,11.10
2014,12,09,01,57,11.10
2014,12,09,01,58,11.10
2014,12,09,01,59,11.10
2014,12,09,02,00,11.10
2014,12,09,02,01,11.10
2014,12,09,02,02,11.20
2014,12,09,02,03,11.20
2014,12,09,02,04,11.20
2014,12,09,02,05,11.20
2014,12,09,02,06,11.20
2014,12,09,02,07,11.20
2014,12,09,02,08,11.20
2014,12,09,02,09,11.10
2014,12,09,02,10,11.10
2014,12,09,02,11,11.10
2014,12,09,02,12,11.10
2014,12,09,02,13,11.10
2014,12,09,02,14,11.10
2014,12,09,02,15,11.10
2014,12,09,02,16,11.00
2014,12,09,02,17,11.00
2014,12,09,02,18,11.00
2014,12,09,02,19,11.00
2014,12,09,02,20,11.00
2014,12,09,02,21,11.00
2014,12,09,02,22,11.00
2014,12,09,02,23,11.00
2014,12,09,02,24,11.00
2014,12,09,02,25,11.00
2014,12,09,02,26,11.00
2014,12,09,02,27,11.00
2014,12,09,02,28,11.00
2014,12,09,02,29,11.00
2014,12,09,02,30,11.00
2014,12,09,02,31,11.00
2014,12,09,02,32,11.10
2014,12,09,02,33,11.10
2014,12,09,02,34,11.10
2014,12,09,02,35,11.10
2014,12,09,02,36,11.10
2014,12,09,02,37,11.10
2014,12,09,02,38,11.10
2014,12,09,02,39,11.20
2014,12,09,02,40,11.20
2014,12,09,02,41,11.20
2014,12,09,02,42,11.20
2014,12,09,02,43,11.10
2014,12,09,02,44,11.10
2014,12,09,02,45,11.10
2014,12,09,02,46,11.10
2014,12,09,02,47,11.10
2014,12,09,02,48,11.10
2014,12,09,02,49,11.10
2014,12,09,02,50,11.20
2014,12,09,02,51,11.10
2014,12,09,02,52,11.10
2014,12,09,02,53,11.10
2014,12,09,02,54,11.10
2014,12,09,02,55,11.10
2014,12,09,02,56,11.10
2014,12,09,02,57,11.20
2014,12,09,02,58,11.20
2014,12,09,02,59,11.20
2014,12,09,03,00,11.30
2014,12,09,03,01,11.30
2014,12,09,03,02,11.30
2014,12,09,03,03,11.30
2014,12,09,03,04,11.30
2014,12,09,03,05,11.30
2014,12,09,03,06,11.30
2014,12,09,03,07,11.30
2014,12,09,03,08,11.30
2014,12,09,03,09,11.20
2014,12,09,03,10,11.20
2014,12,09,03,11,11.20
2014,12,09,03,12,11.20
2014,12,09,03,13,11.20
2014,12,09,03,14,11.20
2014,12,09,03,15,11.20
2014,12,09,03,16,11.20
2014,12,09,03,17,11.20
2014,12,09,03,18,11.20
2014,12,09,03,19,11.20
2014,12,09,03,20,11.20
2014,12,09,03,21,11.20
2014,12,09,03,22,11.20
2014,12,09,03,23,11.20
2014,12,09,03,24,11.20
2014,12,09,03,25,11.20
2014,12,09,03,26,11.20
2014,12,09,03,27,11.20
2014,12,09,03,28,11.20
2014,12,09,03,29,11.20
2014,12,09,03,30,11.20
2014,12,09,03,31,11.20
2014,12,09,03,32,11.20
2014,12,09,03,33,11.20
2014,12,09,03,34,11.20
2014,12,09,03,35,11.20
2014,12,09,03,36,11.20
2014,12,09,03,37,11.20
2014,12,09,03,38,11.30
2014,12,09,03,39,11.30
2014,12,09,03,40,11.30
2014,12,09,03,41,11.30
2014,12,09,03,42,11.30
2014,12,09,03,43,11.30
2014,12,09,03,44,11.30
2014,12,09,03,45,11.30
2014,12,09,03,46,11.30
2014,12,09,03,47,11.40
2014,12,09,03,48,11.40
2014,12,09,03,49,11.40
2014,12,09,03,50,11.40
2014,12,09,03,51,11.40
2014,12,09,03,52,11.40
2014,12,09,03,53,11.40
2014,12,09,03,54,11.40
2014,12,09,03,55,11.40
2014,12,09,03,56,11.40
2014,12,09,03,57,11.40
2014,12,09,03,58,11.40
2014,12,09,03,59,11.40
2014,12,09,04,00,11.40
2014,12,09,04,01,11.40
2014,12,09,04,02,11.40
2014,12,09,04,03,11.40
2014,12,09,04,04,11.40
2014,12,09,04,05,11.40
2014,12,09,04,06,11.40
2014,12,09,04,07,11.40
2014,12,09,04,08,11.40
2014,12,09,04,09,11.40
2014,12,09,04,10,11.40
2014,12,09,04,11,11.40
2014,12,09,04,12,11.40
2014,12,09,04,13,11.40
2014,12,09,04,14,11.50
2014,12,09,04,15,11.50
2014,12,09,04,16,11.60
2014,12,09,04,17,11.60
2014,12,09,04,18,11.60
2014,12,09,04,19,11.60
2014,12,09,04,20,11.60
2014,12,09,04,21,11.60
2014,12,09,04,22,11.60
2014,12,09,04,23,11.60
2014,12,09,04,24,11.60
2014,12,09,04,25,11.70
2014,12,09,04,26,11.70
2014,12,09,04,27,11.70
2014,12,09,04,28,11.60
2014,12,09,04,29,11.60
2014,12,09,04,30,11.70
2014,12,09,04,31,11.70
2014,12,09,04,32,11.70
2014,12,09,04,33,11.70
2014,12,09,04,34,11.70
2014,12,09,04,35,11.70
2014,12,09,04,36,11.70
2014,12,09,04,37,11.80
2014,12,09,04,38,11.80
2014,12,09,04,39,11.80
2014,12,09,04,40,11.80
2014,12,09,04,41,11.80
2014,12,09,04,42,11.80
2014,12,09,04,43,11.80
2014,12,09,04,44,11.80
2014,12,09,04,45,11.80
2014,12,09,04,46,11.80
2014,12,09,04,47,11.80
2014,12,09,04,48,11.80
2014,12,09,04,49,11.80
2014,12,09,04,50,11.70
2014,12,09,04,51,11.70
2014,12,09,04,52,11.70
2014,12,09,04,53,11.70
2014,12,09,04,54,11.70
2014,12,09,04,55,11.70
2014,12,09,04,56,11.80
2014,12,09,04,57,11.80
2014,12,09,04,58,11.80
2014,12,09,04,59,11.80
2014,12,09,05,00,11.80
2014,12,09,05,01,11.80
2014,12,09,05,02,11.70
2014,12,09,05,03,11.70
2014,12,09,05,04,11.70
2014,12,09,05,05,11.70
2014,12,09,05,06,11.70
2014,12,09,05,07,11.70
2014,12,09,05,08,11.60
2014,12,09,05,09,11.60
2014,12,09,05,10,11.60
2014,12,09,05,11,11.60
2014,12,09,05,12,11.60
2014,12,09,05,13,11.50
2014,12,09,05,14,11.50
2014,12,09,05,15,11.50
2014,12,09,05,16,11.50
2014,12,09,05,17,11.50
2014,12,09,05,18,11.50
2014,12,09,05,19,11.50
2014,12,09,05,20,11.50
2014,12,09,05,21,11.50
2014,12,09,05,22,11.50
2014,12,09,05,23,11.50
2014,12,09,09,20,11.40
2014,12,09,09,21,11.40
2014,12,09,09,22,11.30
2014,12,09,09,23,11.40
2014,12,09,09,24,11.40
2014,12,09,09,25,11.40
2014,12,09,09,26,11.40
2014,12,09,09,27,11.40
2014,12,09,09,28,11.40
2014,12,09,09,29,11.40
2014,12,09,09,30,11.40
2014,12,09,09,31,11.40
2014,12,09,09,32,11.40
2014,12,09,09,33,11.40
2014,12,09,09,34,11.40
2014,12,09,09,35,11.40
2014,12,09,09,36,11.40
2014,12,09,09,37,11.50
2014,12,09,09,38,11.50
2014,12,09,09,39,11.50
2014,12,09,09,40,11.50
2014,12,09,09,41,11.60
2014,12,09,09,42,11.60
2014,12,09,09,43,11.60
2014,12,09,09,44,11.60
2014,12,09,09,45,11.60
2014,12,09,09,46,11.60
2014,12,09,09,47,11.60
2014,12,09,09,48,11.70
2014,12,09,09,49,11.70
2014,12,09,09,50,11.70
2014,12,09,09,51,11.70
2014,12,09,09,52,11.70
2014,12,09,09,53,11.70
2014,12,09,09,54,11.70
2014,12,09,09,55,11.70
2014,12,09,09,56,11.70
2014,12,09,09,57,11.70
2014,12,09,09,58,11.70
2014,12,09,09,59,11.70
2014,12,09,10,00,11.70
2014,12,09,10,01,11.70
2014,12,09,10,02,11.70
2014,12,09,10,03,11.70
2014,12,09,10,04,11.70
2014,12,09,10,05,11.70
2014,12,09,10,06,11.70
2014,12,09,10,07,11.70
2014,12,09,10,08,11.70
2014,12,09,10,09,11.70
2014,12,09,10,10,11.70
2014,12,09,10,11,11.70
2014,12,09,10,12,11.70
2014,12,09,10,13,11.70
2014,12,09,10,14,11.70
2014,12,09,10,15,11.70
2014,12,09,10,16,11.70
2014,12,09,10,17,11.70
2014,12,09,10,18,11.80
2014,12,09,10,19,11.70
2014,12,09,10,20,11.70
2014,12,09,10,21,11.70
2014,12,09,10,22,11.70
2014,12,09,10,23,11.70
2014,12,09,10,24,11.70
2014,12,09,10,25,11.70
2014,12,09,10,26,11.70
2014,12,09,10,27,11.70
2014,12,09,10,28,11.70
2014,12,09,10,29,11.70
2014,12,09,10,30,11.70
2014,12,09,10,31,11.70
2014,12,09,10,32,11.70
2014,12,09,10,33,11.70
2014,12,09,10,34,11.70
2014,12,09,10,35,11.80
2014,12,09,10,36,11.80
2014,12,09,10,37,11.90
2014,12,09,10,38,11.90
2014,12,09,10,39,11.90
2014,12,09,10,40,11.90
2014,12,09,10,41,11.90
2014,12,09,10,42,11.90
2014,12,09,10,43,11.90
2014,12,09,10,44,11.90
2014,12,09,10,45,11.90
2014,12,09,10,46,11.90
2014,12,09,10,47,11.90
2014,12,09,10,48,11.90
2014,12,09,10,49,11.90
2014,12,09,10,50,11.90
2014,12,09,10,51,11.90
2014,12,09,10,52,11.90
2014,12,09,10,53,11.90
2014,12,09,10,54,11.90
2014,12,09,10,55,12.00
2014,12,09,10,56,12.00
2014,12,09,10,57,12.00
2014,12,09,10,58,12.00
2014,12,09,10,59,12.00
2014,12,09,11,00,12.10
2014,12,09,11,01,12.10
2014,12,09,11,02,12.10
2014,12,09,11,03,12.10
2014,12,09,11,04,12.20
2014,12,09,11,05,12.20
2014,12,09,11,06,12.20
2014,12,09,11,07,12.20
2014,12,09,11,08,12.20
2014,12,09,11,09,12.20
2014,12,09,11,10,12.20
2014,12,09,11,11,12.30
2014,12,09,11,12,12.30
2014,12,09,11,13,12.30
2014,12,09,11,14,12.30
2014,12,09,11,15,12.40
2014,12,09,11,16,12.40
2014,12,09,11,17,12.40
2014,12,09,11,18,12.40
2014,12,09,11,19,12.40
2014,12,09,11,20,12.40
2014,12,09,11,21,12.40
2014,12,09,11,22,12.50
2014,12,09,11,23,12.50
2014,12,09,11,24,12.60
2014,12,09,11,25,12.60
2014,12,09,11,26,12.70
2014,12,09,11,27,12.70
2014,12,09,11,28,12.80
2014,12,09,11,29,12.90
2014,12,09,11,30,13.00
2014,12,09,11,31,13.10
2014,12,09,11,32,13.20
2014,12,09,11,33,13.20
2014,12,09,11,34,13.30
2014,12,09,11,35,13.40
2014,12,09,11,36,13.60
2014,12,09,11,37,13.70
2014,12,09,11,38,13.70
2014,12,09,11,39,13.80
2014,12,09,11,40,13.90
2014,12,09,11,41,13.90
2014,12,09,11,42,13.90
2014,12,09,11,43,13.90
2014,12,09,11,44,14.00
2014,12,09,11,45,14.00
2014,12,09,11,46,14.10
2014,12,09,11,47,14.10
2014,12,09,11,48,14.10
2014,12,09,11,49,14.10
2014,12,09,11,50,14.10
2014,12,09,11,51,14.10
2014,12,09,11,52,14.10
2014,12,09,11,53,14.10
2014,12,09,11,54,14.20
2014,12,09,11,55,14.20
2014,12,09,11,56,14.20
2014,12,09,11,57,14.30
2014,12,09,11,58,14.30
2014,12,09,11,59,14.40
2014,12,09,12,00,14.40
2014,12,09,12,01,14.50
2014,12,09,12,02,14.60
2014,12,09,12,03,14.60
2014,12,09,12,04,14.70
2014,12,09,12,05,14.70
2014,12,09,12,06,14.70
2014,12,09,12,07,14.70
2014,12,09,12,08,14.80
2014,12,09,12,09,14.80
2014,12,09,12,10,14.80
2014,12,09,12,11,14.80
2014,12,09,12,12,14.80
2014,12,09,12,13,14.80
2014,12,09,12,14,14.80
2014,12,09,12,15,14.80
2014,12,09,12,16,14.80
2014,12,09,12,17,14.80
2014,12,09,12,18,14.80
2014,12,09,12,19,14.80
2014,12,09,12,20,14.80
2014,12,09,12,21,14.80
2014,12,09,12,22,14.80
2014,12,09,12,23,14.90
2014,12,09,12,24,14.80
2014,12,09,12,25,14.80
2014,12,09,12,26,14.80
2014,12,09,12,27,14.80
2014,12,09,12,28,14.80
2014,12,09,12,29,14.70
2014,12,09,12,30,14.60
2014,12,09,12,31,14.50
2014,12,09,12,32,14.50
2014,12,09,12,33,14.50
2014,12,09,12,34,14.40
2014,12,09,12,35,14.40
2014,12,09,12,36,14.40
2014,12,09,12,37,14.40
2014,12,09,12,38,14.30
2014,12,09,12,39,14.30
2014,12,09,12,40,14.30
2014,12,09,12,41,14.30
2014,12,09,12,42,14.30
2014,12,09,12,43,14.30
2014,12,09,12,44,14.30
2014,12,09,12,45,14.30
2014,12,09,12,46,14.30
2014,12,09,12,47,14.30
2014,12,09,12,48,14.30
2014,12,09,12,49,14.40
2014,12,09,12,50,14.40
2014,12,09,12,51,14.50
2014,12,09,12,52,14.50
2014,12,09,12,53,14.60
2014,12,09,12,54,14.60
2014,12,09,12,55,14.70
2014,12,09,12,56,14.70
2014,12,09,12,57,14.70
2014,12,09,12,58,14.70
2014,12,09,12,59,14.70
2014,12,09,13,00,14.70
2014,12,09,13,01,14.70
2014,12,09,13,02,14.70
2014,12,09,13,03,14.70
2014,12,09,13,04,14.60
2014,12,09,13,05,14.60
2014,12,09,13,06,14.50
2014,12,09,13,07,14.50
2014,12,09,13,08,14.50
2014,12,09,13,09,14.50
2014,12,09,13,10,14.50
2014,12,09,13,11,14.50
2014,12,09,13,12,14.50
2014,12,09,13,13,14.40
2014,12,09,13,14,14.40
2014,12,09,13,15,14.40
2014,12,09,13,16,14.40
2014,12,09,13,17,14.40
2014,12,09,13,18,14.40
2014,12,09,13,19,14.40
2014,12,09,13,20,14.50
2014,12,09,13,21,14.50
2014,12,09,13,22,14.60
2014,12,09,13,23,14.70
2014,12,09,13,24,14.80
2014,12,09,13,25,14.80
2014,12,09,13,26,14.90
2014,12,09,13,27,15.00
2014,12,09,13,28,15.00
2014,12,09,13,29,15.10
2014,12,09,13,30,15.10
2014,12,09,13,31,15.10
2014,12,09,13,32,15.20
2014,12,09,13,33,15.20
2014,12,09,13,34,15.20
2014,12,09,13,35,15.20
2014,12,09,13,36,15.20
2014,12,09,13,37,15.30
2014,12,09,13,38,15.30
2014,12,09,13,39,15.30
2014,12,09,13,40,15.30
2014,12,09,13,41,15.30
2014,12,09,13,42,15.30
2014,12,09,13,43,15.30
2014,12,09,13,44,15.30
2014,12,09,13,45,15.30
2014,12,09,13,46,15.30
2014,12,09,13,47,15.30
2014,12,09,13,48,15.30
2014,12,09,13,49,15.30
2014,12,09,13,50,15.30
2014,12,09,13,51,15.30
2014,12,09,13,52,15.30
2014,12,09,13,53,15.30
2014,12,09,13,54,15.30
2014,12,09,13,55,15.30
2014,12,09,13,56,15.30
2014,12,09,13,57,15.30
2014,12,09,13,58,15.30
2014,12,09,13,59,15.20
2014,12,09,14,00,15.20
2014,12,09,14,01,15.20
2014,12,09,14,02,15.20
2014,12,09,14,03,15.20
2014,12,09,14,04,15.20
2014,12,09,14,05,15.10
2014,12,09,14,06,15.10
2014,12,09,14,07,15.10
2014,12,09,14,08,15.10
2014,12,09,14,09,15.10
2014,12,09,14,10,15.10
2014,12,09,14,11,15.10
2014,12,09,14,12,15.00
2014,12,09,14,13,15.00
2014,12,09,14,14,15.00
2014,12,09,14,15,15.00
2014,12,09,14,16,14.90
2014,12,09,14,17,14.90
2014,12,09,14,18,14.90
2014,12,09,14,19,14.90
2014,12,09,14,20,14.90
2014,12,09,14,21,14.90
2014,12,09,14,22,14.90
2014,12,09,14,23,14.80
2014,12,09,14,24,14.80
2014,12,09,14,25,14.80
2014,12,09,14,26,14.80
2014,12,09,14,27,14.80
2014,12,09,14,28,14.80
2014,12,09,14,29,14.80
2014,12,09,14,30,14.80
2014,12,09,14,31,14.80
2014,12,09,14,32,14.80
2014,12,09,14,33,14.80
2014,12,09,14,34,14.80
2014,12,09,14,35,14.80
2014,12,09,14,36,14.80
2014,12,09,14,37,14.80
2014,12,09,14,38,14.80
2014,12,09,14,39,14.80
2014,12,09,14,40,14.70
2014,12,09,14,41,14.70
2014,12,09,14,42,14.70
2014,12,09,14,43,14.70
2014,12,09,14,44,14.70
2014,12,09,14,45,14.70
2014,12,09,14,46,14.70
2014,12,09,14,47,14.70
2014,12,09,14,48,14.70
2014,12,09,14,49,14.60
2014,12,09,14,50,14.60
2014,12,09,14,51,14.60
2014,12,09,14,52,14.50
2014,12,09,14,53,14.50
2014,12,09,14,54,14.50
2014,12,09,14,55,14.50
2014,12,09,14,56,14.40
2014,12,09,14,57,14.40
2014,12,09,14,58,14.40
2014,12,09,14,59,14.40
2014,12,09,15,00,14.40
2014,12,09,15,01,14.30
2014,12,09,15,02,14.30
2014,12,09,15,03,14.30
2014,12,09,15,04,14.30
2014,12,09,15,05,14.30
2014,12,09,15,06,14.30
2014,12,09,15,07,14.30
2014,12,09,15,08,14.30
2014,12,09,15,09,14.30
2014,12,09,15,10,14.30
2014,12,09,15,11,14.30
2014,12,09,15,12,14.30
2014,12,09,15,13,14.30
2014,12,09,15,14,14.30
2014,12,09,15,15,14.30
2014,12,09,15,16,14.20
2014,12,09,15,17,14.20
2014,12,09,15,18,14.30
2014,12,09,15,19,14.20
2014,12,09,15,20,14.20
2014,12,09,15,21,14.20
2014,12,09,15,22,14.30
2014,12,09,15,23,14.30
2014,12,09,15,24,14.30
2014,12,09,15,25,14.30
2014,12,09,15,26,14.20
2014,12,09,15,27,14.20
2014,12,09,15,28,14.20
2014,12,09,15,29,14.20
2014,12,09,15,30,14.20
2014,12,09,15,31,14.20
2014,12,09,15,32,14.20
2014,12,09,15,33,14.10
2014,12,09,15,34,14.10
2014,12,09,15,35,14.10
2014,12,09,15,36,14.10
2014,12,09,15,37,14.10
2014,12,09,15,38,14.10
2014,12,09,15,39,14.10
2014,12,09,15,40,14.10
2014,12,09,15,41,14.10
2014,12,09,15,42,14.10
2014,12,09,15,43,14.00
2014,12,09,15,44,14.00
2014,12,09,15,45,14.00
2014,12,09,15,46,14.10
2014,12,09,15,47,14.10
2014,12,09,15,48,14.10
2014,12,09,15,49,14.10
2014,12,09,15,50,14.10
2014,12,09,15,51,14.00
2014,12,09,15,52,14.00
2014,12,09,15,53,14.00
2014,12,09,15,54,14.00
2014,12,09,15,55,14.00
2014,12,09,15,56,14.00
2014,12,09,15,57,14.00
2014,12,09,15,58,14.00
2014,12,09,15,59,14.10
2014,12,09,16,00,14.00
2014,12,09,16,01,14.00
2014,12,09,16,02,14.00
2014,12,09,16,03,14.00
2014,12,09,16,04,14.00
2014,12,09,16,05,14.00
2014,12,09,16,06,13.90
2014,12,09,16,07,13.90
2014,12,09,16,08,13.90
2014,12,09,16,09,14.00
2014,12,09,16,10,14.00
2014,12,09,16,11,14.00
2014,12,09,16,12,14.00
2014,12,09,16,13,14.10
2014,12,09,16,14,14.10
2014,12,09,16,15,14.10
2014,12,09,16,16,14.10
2014,12,09,16,17,14.10
2014,12,09,16,18,14.10
2014,12,09,16,19,14.10
2014,12,09,16,20,14.00
2014,12,09,16,21,14.00
2014,12,09,16,22,14.00
2014,12,09,16,23,14.00
2014,12,09,16,24,14.00
2014,12,09,16,25,14.00
2014,12,09,16,26,14.10
2014,12,09,16,27,14.10
2014,12,09,16,28,14.10
2014,12,09,16,29,14.10
2014,12,09,16,30,14.00
2014,12,09,16,31,14.00
2014,12,09,16,32,14.00
2014,12,09,16,33,14.00
2014,12,09,16,34,14.00
2014,12,09,16,35,14.00
2014,12,09,16,36,14.00
2014,12,09,16,37,14.00
2014,12,09,16,38,14.00
2014,12,09,16,39,14.00
2014,12,09,16,40,14.00
2014,12,09,16,41,14.00
2014,12,09,16,42,14.00
2014,12,09,16,43,14.00
2014,12,09,16,44,13.90
2014,12,09,16,45,13.90
2014,12,09,16,46,13.90
2014,12,09,16,47,13.90
2014,12,09,16,48,13.90
2014,12,09,16,49,13.90
2014,12,09,16,50,13.90
2014,12,09,16,51,13.90
2014,12,09,16,52,13.90
2014,12,09,16,53,13.90
2014,12,09,16,54,13.90
2014,12,09,16,55,13.80
2014,12,09,16,56,13.80
2014,12,09,16,57,13.80
2014,12,09,16,58,13.70
2014,12,09,16,59,13.70
2014,12,09,17,00,13.70
2014,12,09,17,01,13.60
2014,12,09,17,02,13.50
2014,12,09,17,03,13.40
2014,12,09,17,04,13.30
2014,12,09,17,05,13.20
2014,12,09,17,06,13.10
2014,12,09,17,07,13.10
2014,12,09,17,08,13.00
2014,12,09,17,09,12.90
2014,12,09,17,10,12.80
2014,12,09,17,11,12.80
2014,12,09,17,12,12.80
2014,12,09,17,13,12.70
2014,12,09,17,14,12.70
2014,12,09,17,15,12.70
2014,12,09,17,16,12.70
2014,12,09,17,17,12.70
2014,12,09,17,18,12.70
2014,12,09,17,19,12.70
2014,12,09,17,20,12.70
2014,12,09,17,21,12.80
2014,12,09,17,22,12.80
2014,12,09,17,23,12.80
2014,12,09,17,24,12.80
2014,12,09,17,25,12.80
2014,12,09,17,26,12.80
2014,12,09,17,27,12.90
2014,12,09,17,28,12.80
2014,12,09,17,29,12.80
2014,12,09,17,30,12.70
2014,12,09,17,31,12.60
2014,12,09,17,32,12.50
2014,12,09,17,33,12.40
2014,12,09,17,34,12.40
2014,12,09,17,35,12.30
2014,12,09,17,36,12.30
2014,12,09,17,37,12.40
2014,12,09,17,38,12.40
2014,12,09,17,39,12.40
2014,12,09,17,40,12.40
2014,12,09,17,41,12.40
2014,12,09,17,42,12.40
2014,12,09,17,43,12.30
2014,12,09,17,44,12.20
2014,12,09,17,45,12.20
2014,12,09,17,46,12.10
2014,12,09,17,47,12.10
2014,12,09,17,48,12.10
2014,12,09,17,49,12.00
2014,12,09,17,50,12.00
2014,12,09,17,51,12.00
2014,12,09,17,52,12.00
2014,12,09,17,53,12.00
2014,12,09,17,54,12.00
2014,12,09,17,55,12.00
2014,12,09,17,56,12.10
2014,12,09,17,57,12.10
2014,12,09,17,58,12.10
2014,12,09,17,59,12.10
2014,12,09,18,00,12.10
2014,12,09,18,01,12.10
2014,12,09,18,02,12.10
2014,12,09,18,03,12.10
2014,12,09,18,04,12.10
2014,12,09,18,05,12.10
2014,12,09,18,06,12.10
2014,12,09,18,07,12.10
2014,12,09,18,08,12.10
2014,12,09,18,09,12.10
2014,12,09,18,10,12.20
2014,12,09,18,11,12.20
2014,12,09,18,12,12.20
2014,12,09,18,13,12.20
2014,12,09,18,14,12.10
2014,12,09,18,15,12.10
2014,12,09,18,16,12.10
2014,12,09,18,17,12.10
2014,12,09,18,18,12.10
2014,12,09,18,19,12.10
2014,12,09,18,20,12.10
2014,12,09,18,21,12.20
2014,12,09,18,22,12.20
2014,12,09,18,23,12.20
2014,12,09,18,24,12.20
2014,12,09,18,25,12.20
2014,12,09,18,26,12.20
2014,12,09,18,27,12.10
2014,12,09,18,28,12.10
2014,12,09,18,29,12.00
2014,12,09,18,30,11.90
2014,12,09,18,31,11.90
2014,12,09,18,32,11.90
2014,12,09,18,33,11.90
2014,12,09,18,34,11.90
2014,12,09,18,35,11.90
2014,12,09,18,36,11.90
2014,12,09,18,37,11.90
2014,12,09,18,38,11.90
2014,12,09,18,39,11.90
2014,12,09,18,40,11.90
2014,12,09,18,41,11.90
2014,12,09,18,42,12.00
2014,12,09,18,43,12.00
2014,12,09,18,44,12.00
2014,12,09,18,45,11.90
2014,12,09,18,46,11.90
2014,12,09,18,47,11.90
2014,12,09,18,48,11.90
2014,12,09,18,49,11.80
2014,12,09,18,50,11.80
2014,12,09,18,51,11.70
2014,12,09,18,52,11.70
2014,12,09,18,53,11.60
2014,12,09,18,54,11.50
2014,12,09,18,55,11.50
2014,12,09,18,56,11.40
2014,12,09,18,57,11.40
2014,12,09,18,58,11.30
2014,12,09,18,59,11.30
2014,12,09,19,00,11.20
2014,12,09,19,01,11.20
2014,12,09,19,02,11.20
2014,12,09,19,03,11.10
2014,12,09,19,04,11.10
2014,12,09,19,05,11.10
2014,12,09,19,06,11.10
2014,12,09,19,07,11.10
2014,12,09,19,08,11.00
2014,12,09,19,09,11.00
2014,12,09,19,10,11.00
2014,12,09,19,11,10.90
2014,12,09,19,12,10.90
2014,12,09,19,13,10.90
2014,12,09,19,14,10.80
2014,12,09,19,15,10.80
2014,12,09,19,16,10.80
2014,12,09,19,17,10.80
2014,12,09,19,18,10.80
2014,12,09,19,19,10.70
2014,12,09,19,20,10.70
2014,12,09,19,21,10.70
2014,12,09,19,22,10.70
2014,12,09,19,23,10.70
2014,12,09,19,24,10.70
2014,12,09,19,25,10.70
2014,12,09,19,26,10.70
2014,12,09,19,27,10.60
2014,12,09,19,28,10.60
2014,12,09,19,29,10.60
2014,12,09,19,30,10.60
2014,12,09,19,31,10.60
2014,12,09,19,32,10.50
2014,12,09,19,33,10.50
2014,12,09,19,34,10.50
2014,12,09,19,35,10.50
2014,12,09,19,36,10.50
2014,12,09,19,37,10.50
2014,12,09,19,38,10.50
2014,12,09,19,39,10.50
2014,12,09,19,40,10.50
2014,12,09,19,41,10.50
2014,12,09,19,42,10.50
2014,12,09,19,43,10.50
2014,12,09,19,44,10.50
2014,12,09,19,45,10.50
2014,12,09,19,46,10.40
2014,12,09,19,47,10.40
2014,12,09,19,48,10.40
2014,12,09,19,49,10.40
2014,12,09,19,50,10.40
2014,12,09,19,51,10.40
2014,12,09,19,52,10.40
2014,12,09,19,53,10.30
2014,12,09,19,54,10.30
2014,12,09,19,55,10.30
2014,12,09,19,56,10.30
2014,12,09,19,57,10.30
2014,12,09,19,58,10.20
2014,12,09,19,59,10.10
2014,12,09,20,00,10.10
2014,12,09,20,01,10.00
2014,12,09,20,02,10.00
2014,12,09,20,03,10.00
2014,12,09,20,04,10.00
2014,12,09,20,05,10.10
2014,12,09,20,06,10.10
2014,12,09,20,07,10.20
2014,12,09,20,08,10.20
2014,12,09,20,09,10.20
2014,12,09,20,10,10.20
2014,12,09,20,11,10.20
2014,12,09,20,12,10.20
2014,12,09,20,13,10.20
2014,12,09,20,14,10.20
2014,12,09,20,15,10.30
2014,12,09,20,16,10.30
2014,12,09,20,17,10.30
2014,12,09,20,18,10.30
2014,12,09,20,19,10.30
2014,12,09,20,20,10.30
2014,12,09,20,21,10.30
2014,12,09,20,22,10.30
2014,12,09,20,23,10.30
2014,12,09,20,24,10.30
2014,12,09,20,25,10.30
2014,12,09,20,26,10.30
2014,12,09,20,27,10.30
2014,12,09,20,28,10.30
2014,12,09,20,29,10.30
2014,12,09,20,30,10.30
2014,12,09,20,31,10.30
2014,12,09,20,32,10.30
2014,12,09,20,33,10.30
2014,12,09,20,34,10.30
2014,12,09,20,35,10.30
2014,12,09,20,36,10.30
2014,12,09,20,37,10.30
2014,12,09,20,38,10.40
2014,12,09,20,39,10.40
2014,12,09,20,40,10.40
2014,12,09,20,41,10.40
2014,12,09,20,42,10.40
2014,12,09,20,43,10.40
2014,12,09,20,44,10.40
2014,12,09,20,45,10.30
2014,12,09,20,46,10.30
2014,12,09,20,47,10.30
2014,12,09,20,48,10.30
2014,12,09,20,49,10.30
2014,12,09,20,50,10.30
2014,12,09,20,51,10.30
2014,12,09,20,52,10.30
2014,12,09,20,53,10.30
2014,12,09,20,54,10.30
2014,12,09,20,55,10.30
2014,12,09,20,56,10.30
2014,12,09,20,57,10.30
2014,12,09,20,58,10.40
2014,12,09,20,59,10.40
2014,12,09,21,00,10.40
2014,12,09,21,01,10.40
2014,12,09,21,02,10.40
2014,12,09,21,03,10.30
2014,12,09,21,04,10.30
2014,12,09,21,05,10.30
2014,12,09,21,06,10.30
2014,12,09,21,07,10.30
2014,12,09,21,08,10.30
2014,12,09,21,09,10.30
2014,12,09,21,10,10.30
2014,12,09,21,11,10.30
2014,12,09,21,12,10.30
2014,12,09,21,13,10.30
2014,12,09,21,14,10.30
2014,12,09,21,15,10.30